Location: Leiter
(44.7178°N, 106.2687°W)
Time: 01:42:53
(UTC+00:00)

AIST 2D - Visible Passes

Search period start: 29 June 2022 00:00
Search period end: 09 July 2022 00:00
Orbit: 433 x 449 km, 97.1° (Epoch: 27 June)

Date Brightness Start Highest point End Pass type
(mag) Time Alt. Az. Time Alt. Az. Time Alt. Az.
29 Jun ? 04:52:19 10° N 04:55:38 72° WNW 04:57:41 21° SSW visible
30 Jun ? 04:14:50 10° NNE 04:17:53 33° E 04:19:36 20° SSE visible
30 Jun ? 05:48:18 10° NNW 05:50:13 15° WNW 05:52:08 10° WSW visible
01 Jul ? 03:38:45 10° ENE 03:39:55 11° E 03:41:05 10° ESE visible
01 Jul ? 05:09:35 10° N 05:12:44 40° WNW 05:14:59 17° SW visible
02 Jul ? 04:31:46 10° NNE 04:35:03 57° E 04:36:53 23° S visible
03 Jul ? 03:54:44 10° NE 03:57:08 18° E 03:58:45 14° SE visible
03 Jul ? 05:26:57 10° NNW 05:29:44 25° WNW 05:32:13 12° WSW visible
04 Jul ? 04:48:45 10° N 04:52:06 80° WNW 04:54:04 23° SSW visible
05 Jul ? 04:11:16 10° NNE 04:14:14 30° E 04:15:54 19° SE visible
05 Jul ? 05:44:30 10° NNW 05:46:37 16° WNW 05:48:44 10° WSW visible
06 Jul ? 03:35:32 10° E 03:36:10 10° E 03:36:48 10° E visible
06 Jul ? 05:05:49 10° N 05:09:01 45° WNW 05:11:10 18° SW visible
07 Jul ? 04:27:57 10° NNE 04:31:13 51° E 04:32:57 24° SSE visible
07 Jul ? 06:02:48 10° NW 06:03:22 10° WNW 06:03:57 10° WNW visible
08 Jul ? 03:50:57 10° NE 03:53:12 17° E 03:54:44 13° SE visible
08 Jul ? 05:22:57 10° N 05:25:50 27° WNW 05:28:11 13° SW visible
